******** Week 354 almanac for PRN-1 ******** ID: 1 Health: 0 Eccentricity: 0.001393318176 Time of Applicability(s): 233472 Orbital Inclination(rad): 0.9584347915 Rate of Right Ascen(r/s): -7.806039438e-09 SQRT(A) (m 1/2): 5153.586914 Right Ascen at Week(rad): -2.394531278 Argument of Perigee(rad): -0.009565284014 Mean Anom(rad): -0.7938043485 Af0(s): 0.0002705690796 Af1(s/s): -3.637979e-12 week: 354 ******** Week 354 almanac for PRN-2 ******** ID: 2 Health: 0 Eccentricity: 0.01697969437 Time of Applicability(s): 233472 Orbital Inclination(rad): 0.9639535271 Rate of Right Ascen(r/s): -7.657461821e-09 SQRT(A) (m 1/2): 5153.567383 Right Ascen at Week(rad): -2.557229115 Argument of Perigee(rad): -0.8452627377 Mean Anom(rad): 0.5993213506 Af0(s): 1.658083496e-05 Af1(s/s): 7.275958e-12 week: 354 ******** Week 354 almanac for PRN-3 ******** ID: 3 Health: 0 Eccentricity: 0.006358623505 Time of Applicability(s): 233472 Orbital Inclination(rad): 0.9925359035 Rate of Right Ascen(r/s): -8.000333246e-09 SQRT(A) (m 1/2): 5153.599609 Right Ascen at Week(rad): -1.408438917 Argument of Perigee(rad): 1.209956558 Mean Anom(rad): -3.024236009 Af0(s): 0.0004687854248 Af1(s/s): -1.091394e-11 week: 354 ******** Week 354 almanac for PRN-4 ******** ID: 4 Health: 0 Eccentricity: 0.003734588623 Time of Applicability(s): 233472 Orbital Inclination(rad): 0.9705448508 Rate of Right Ascen(r/s): -7.886042771e-09 SQRT(A) (m 1/2): 5153.70459 Right Ascen at Week(rad): -0.3371169957 Argument of Perigee(rad): -2.908087897 Mean Anom(rad): 0.02498710894 Af0(s): 3.090064697e-05 Af1(s/s): 3.637979e-12 week: 354 ******** Week 354 almanac for PRN-5 ******** ID: 5 Health: 0 Eccentricity: 0.005375385284 Time of Applicability(s): 233472 Orbital Inclination(rad): 0.9791135716 Rate of Right Ascen(r/s): -8.103194673e-09 SQRT(A) (m 1/2): 5153.630371 Right Ascen at Week(rad): -1.467678064 Argument of Perigee(rad): 1.425225071 Mean Anom(rad): 0.6374742541 Af0(s): -0.0001801281616 Af1(s/s): 0 week: 354 ******** Week 354 almanac for PRN-6 ******** ID: 6 Health: 0 Eccentricity: 0.003865242004 Time of Applicability(s): 233472 Orbital Inclination(rad): 0.9874066552 Rate of Right Ascen(r/s): -7.508884204e-09 SQRT(A) (m 1/2): 5153.571777 Right Ascen at Week(rad): -2.445158636 Argument of Perigee(rad): -0.6198566945 Mean Anom(rad): -1.646741859 Af0(s): -0.0004778295166 Af1(s/s): -3.637979e-12 week: 354 ******** Week 354 almanac for PRN-7 ******** ID: 7 Health: 0 Eccentricity: 0.02020931244 Time of Applicability(s): 233472 Orbital Inclination(rad): 0.9509865958 Rate of Right Ascen(r/s): -7.726036106e-09 SQRT(A) (m 1/2): 5153.592285 Right Ascen at Week(rad): 0.6713959772 Argument of Perigee(rad): -2.004042911 Mean Anom(rad): -2.553868289 Af0(s): -0.0001092827759 Af1(s/s): -3.637979e-12 week: 354 ******** Week 354 almanac for PRN-8 ******** ID: 8 Health: 0 Eccentricity: 0.01143932343 Time of Applicability(s): 233472 Orbital Inclination(rad): 0.9442814219 Rate of Right Ascen(r/s): -8.011762293e-09 SQRT(A) (m 1/2): 5153.611328 Right Ascen at Week(rad): 2.719945303 Argument of Perigee(rad): 0.5036580242 Mean Anom(rad): 0.2951160325 Af0(s): 0.0003964326904 Af1(s/s): -3.637979e-12 week: 354 ******** Week 354 almanac for PRN-9 ******** ID: 9 Health: 0 Eccentricity: 0.003362178802 Time of Applicability(s): 233472 Orbital Inclination(rad): 0.9646486122 Rate of Right Ascen(r/s): -8.000333246e-09 SQRT(A) (m 1/2): 5153.529297 Right Ascen at Week(rad): -0.4010483416 Argument of Perigee(rad): 2.070853467 Mean Anom(rad): 0.8752420253 Af0(s): 0.0006089688477 Af1(s/s): 0 week: 354 ******** Week 354 almanac for PRN-10 ******** ID: 10 Health: 0 Eccentricity: 0.01096725464 Time of Applicability(s): 233472 Orbital Inclination(rad): 0.992080503 Rate of Right Ascen(r/s): -7.966046103e-09 SQRT(A) (m 1/2): 5153.600586 Right Ascen at Week(rad): -1.410948114 Argument of Perigee(rad): -2.26505109 Mean Anom(rad): 2.28917159 Af0(s): -0.0004612486816 Af1(s/s): -3.637979e-12 week: 354 ******** Week 354 almanac for PRN-11 ******** ID: 11 Health: 0 Eccentricity: 0.002237319946 Time of Applicability(s): 233472 Orbital Inclination(rad): 0.9642351564 Rate of Right Ascen(r/s): -7.748894201e-09 SQRT(A) (m 1/2): 5153.735352 Right Ascen at Week(rad): -2.425459941 Argument of Perigee(rad): -2.248651427 Mean Anom(rad): -0.684731798 Af0(s): -0.000369300415 Af1(s/s): 1.455192e-11 week: 354 ******** Week 354 almanac for PRN-12 ******** ID: 12 Health: 0 Eccentricity: 0.009079933166 Time of Applicability(s): 233472 Orbital Inclination(rad): 0.9587823341 Rate of Right Ascen(r/s): -8.046049436e-09 SQRT(A) (m 1/2): 5153.498535 Right Ascen at Week(rad): 1.789307322 Argument of Perigee(rad): 1.536771989 Mean Anom(rad): 3.112017086 Af0(s): -0.0004793368652 Af1(s/s): 0 week: 354 ******** Week 354 almanac for PRN-13 ******** ID: 13 Health: 0 Eccentricity: 0.00990819931 Time of Applicability(s): 233472 Orbital Inclination(rad): 0.9762733103 Rate of Right Ascen(r/s): -7.760323248e-09 SQRT(A) (m 1/2): 5153.630859 Right Ascen at Week(rad): -0.2265707601 Argument of Perigee(rad): 1.002101413 Mean Anom(rad): 0.02287825986 Af0(s): 0.0005449065308 Af1(s/s): 0 week: 354 ******** Week 354 almanac for PRN-14 ******** ID: 14 Health: 0 Eccentricity: 0.006526470184 Time of Applicability(s): 233472 Orbital Inclination(rad): 0.9421122772 Rate of Right Ascen(r/s): -8.228914196e-09 SQRT(A) (m 1/2): 5153.580078 Right Ascen at Week(rad): 1.735307528 Argument of Perigee(rad): -2.763419952 Mean Anom(rad): 2.916442774 Af0(s): 0.000576560852 Af1(s/s): 3.637979e-12 week: 354 ******** Week 354 almanac for PRN-15 ******** ID: 15 Health: 0 Eccentricity: 0.01659917831 Time of Applicability(s): 233472 Orbital Inclination(rad): 0.9423939065 Rate of Right Ascen(r/s): -8.297488481e-09 SQRT(A) (m 1/2): 5153.624023 Right Ascen at Week(rad): -0.5440489818 Argument of Perigee(rad): 1.494863904 Mean Anom(rad): -0.7128209487 Af0(s): 0.0002992087036 Af1(s/s): 3.637979e-12 week: 354 ******** Week 354 almanac for PRN-16 ******** ID: 16 Health: 0 Eccentricity: 0.01504850388 Time of Applicability(s): 233472 Orbital Inclination(rad): 0.9579434383 Rate of Right Ascen(r/s): -8.068907531e-09 SQRT(A) (m 1/2): 5153.562988 Right Ascen at Week(rad): 1.806361248 Argument of Perigee(rad): 0.9232088855 Mean Anom(rad): 1.295687209 Af0(s): 0.0001514885376 Af1(s/s): 7.275958e-12 week: 354 ******** Week 354 almanac for PRN-17 ******** ID: 17 Health: 0 Eccentricity: 0.01280117035 Time of Applicability(s): 233472 Orbital Inclination(rad): 0.9600646461 Rate of Right Ascen(r/s): -7.828897533e-09 SQRT(A) (m 1/2): 5153.515137 Right Ascen at Week(rad): 2.82396126 Argument of Perigee(rad): -1.13367809 Mean Anom(rad): 0.1874860831 Af0(s): -3.014697266e-05 Af1(s/s): -1.091394e-11 week: 354 ******** Week 354 almanac for PRN-18 ******** ID: 18 Health: 0 Eccentricity: 0.00569820404 Time of Applicability(s): 233472 Orbital Inclination(rad): 0.9723604609 Rate of Right Ascen(r/s): -7.646032773e-09 SQRT(A) (m 1/2): 5153.604492 Right Ascen at Week(rad): -2.449612273 Argument of Perigee(rad): -2.85696207 Mean Anom(rad): -1.795004697 Af0(s): -0.0003527195801 Af1(s/s): 1.091394e-11 week: 354 ******** Week 354 almanac for PRN-19 ******** ID: 19 Health: 0 Eccentricity: 0.01098489761 Time of Applicability(s): 233472 Orbital Inclination(rad): 0.9592736873 Rate of Right Ascen(r/s): -7.794610391e-09 SQRT(A) (m 1/2): 5153.65625 Right Ascen at Week(rad): 2.867859476 Argument of Perigee(rad): 2.917179055 Mean Anom(rad): 2.04660114 Af0(s): 0.0005426455078 Af1(s/s): 3.637979e-12 week: 354 ******** Week 354 almanac for PRN-21 ******** ID: 21 Health: 0 Eccentricity: 0.000572681427 Time of Applicability(s): 233472 Orbital Inclination(rad): 0.9619581537 Rate of Right Ascen(r/s): -8.286059433e-09 SQRT(A) (m 1/2): 5153.687012 Right Ascen at Week(rad): -1.400948027 Argument of Perigee(rad): -0.4653497003 Mean Anom(rad): 2.941008563 Af0(s): 0.0003037307495 Af1(s/s): 7.275958e-12 week: 354 ******** Week 354 almanac for PRN-22 ******** ID: 22 Health: 0 Eccentricity: 0.01220798492 Time of Applicability(s): 233472 Orbital Inclination(rad): 0.9573801797 Rate of Right Ascen(r/s): -8.080336578e-09 SQRT(A) (m 1/2): 5153.564453 Right Ascen at Week(rad): 1.809704098 Argument of Perigee(rad): -0.997219339 Mean Anom(rad): 0.8406053683 Af0(s): -4.446678467e-05 Af1(s/s): 3.637979e-12 week: 354 ******** Week 354 almanac for PRN-23 ******** ID: 23 Health: 0 Eccentricity: 0.005998134613 Time of Applicability(s): 233472 Orbital Inclination(rad): 0.9870770891 Rate of Right Ascen(r/s): -8.023191341e-09 SQRT(A) (m 1/2): 5153.648926 Right Ascen at Week(rad): -1.442857611 Argument of Perigee(rad): -2.747155486 Mean Anom(rad): -2.895464014 Af0(s): 0.0004755684936 Af1(s/s): 3.637979e-12 week: 354 ******** Week 354 almanac for PRN-24 ******** ID: 24 Health: 0 Eccentricity: 0.01782608032 Time of Applicability(s): 233472 Orbital Inclination(rad): 0.9350595609 Rate of Right Ascen(r/s): -7.874613723e-09 SQRT(A) (m 1/2): 5153.605469 Right Ascen at Week(rad): 0.5636510542 Argument of Perigee(rad): 1.130216147 Mean Anom(rad): -1.57359352 Af0(s): -0.0001228489136 Af1(s/s): 1.455192e-11 week: 354 ******** Week 354 almanac for PRN-25 ******** ID: 25 Health: 0 Eccentricity: 0.01294231415 Time of Applicability(s): 233472 Orbital Inclination(rad): 0.9470917227 Rate of Right Ascen(r/s): -8.171768958e-09 SQRT(A) (m 1/2): 5153.675781 Right Ascen at Week(rad): 1.695903022 Argument of Perigee(rad): 1.15158477 Mean Anom(rad): 2.958037023 Af0(s): 0.000354980603 Af1(s/s): -3.637979e-12 week: 354 ******** Week 354 almanac for PRN-26 ******** ID: 26 Health: 0 Eccentricity: 0.01096868515 Time of Applicability(s): 233472 Orbital Inclination(rad): 0.9278690259 Rate of Right Ascen(r/s): -8.343204671e-09 SQRT(A) (m 1/2): 5153.626465 Right Ascen at Week(rad): 1.622109782 Argument of Perigee(rad): 0.7029099947 Mean Anom(rad): 2.128779967 Af0(s): -0.0002487125244 Af1(s/s): -7.275958e-12 week: 354 ******** Week 354 almanac for PRN-27 ******** ID: 27 Health: 0 Eccentricity: 0.01419496536 Time of Applicability(s): 233472 Orbital Inclination(rad): 0.9534134013 Rate of Right Ascen(r/s): -7.886042771e-09 SQRT(A) (m 1/2): 5153.608887 Right Ascen at Week(rad): 2.75160051 Argument of Perigee(rad): 0.8674856103 Mean Anom(rad): 0.3863335859 Af0(s): -1.808818359e-05 Af1(s/s): -7.275958e-12 week: 354 ******** Week 354 almanac for PRN-28 ******** ID: 28 Health: 0 Eccentricity: 0.0003986358643 Time of Applicability(s): 233472 Orbital Inclination(rad): 0.9619581537 Rate of Right Ascen(r/s): -7.657461821e-09 SQRT(A) (m 1/2): 5153.724121 Right Ascen at Week(rad): 0.645195091 Argument of Perigee(rad): 0.3346841981 Mean Anom(rad): -2.521318385 Af0(s): -0.0004808442139 Af1(s/s): 7.275958e-12 week: 354 ******** Week 354 almanac for PRN-29 ******** ID: 29 Health: 0 Eccentricity: 0.003261089325 Time of Applicability(s): 233472 Orbital Inclination(rad): 0.9627071677 Rate of Right Ascen(r/s): -7.817468486e-09 SQRT(A) (m 1/2): 5153.72998 Right Ascen at Week(rad): 2.840554168 Argument of Perigee(rad): 2.750273257 Mean Anom(rad): 0.2612448678 Af0(s): -0.0003082527954 Af1(s/s): 7.275958e-12 week: 354 ******** Week 354 almanac for PRN-30 ******** ID: 30 Health: 0 Eccentricity: 0.007896900177 Time of Applicability(s): 233472 Orbital Inclination(rad): 0.936240007 Rate of Right Ascen(r/s): -7.897471818e-09 SQRT(A) (m 1/2): 5153.731445 Right Ascen at Week(rad): 0.6629927885 Argument of Perigee(rad): -2.345826639 Mean Anom(rad): -2.665794583 Af0(s): 7.461375732e-05 Af1(s/s): 1.091394e-11 week: 354 ******** Week 354 almanac for PRN-31 ******** ID: 31 Health: 0 Eccentricity: 0.01085853577 Time of Applicability(s): 233472 Orbital Inclination(rad): 0.9547436503 Rate of Right Ascen(r/s): -7.714607058e-09 SQRT(A) (m 1/2): 5153.718262 Right Ascen at Week(rad): 0.6954359579 Argument of Perigee(rad): 0.9319963185 Mean Anom(rad): 2.659780749 Af0(s): -0.000135661377 Af1(s/s): 3.637979e-12 week: 354 ******** Week 354 almanac for PRN-32 ******** ID: 32 Health: 0 Eccentricity: 0.009207248688 Time of Applicability(s): 233472 Orbital Inclination(rad): 0.967728558 Rate of Right Ascen(r/s): -7.920329913e-09 SQRT(A) (m 1/2): 5153.669922 Right Ascen at Week(rad): -0.3841921547 Argument of Perigee(rad): -2.02463855 Mean Anom(rad): 0.9944625928 Af0(s): -0.0001220952393 Af1(s/s): 1.818989e-11 week: 354